Location: Newark
(47.5347°N, 5.5339°E)
Time: 02:15:47
(UTC+00:00)

ISS - Pass Details

Date: 25 September 2019
Orbit: 411 x 421 km, 51.6° (Epoch: 21 October)

Event Time Altitude Azimuth Distance (km) Brightness Sun altitude
Rises 18:29:19 0° 254° (WSW) 2,340 1.3 -10.7°
Reaches altitude 10° 18:31:25 10° 257° (WSW) 1,479 0.2 -11.1°
Maximum altitude 18:34:42 65° 340° (NNW) 457 -3.5 -11.6°
Enters shadow 18:37:26 14° 62° (ENE) 1,248 -1.8 -12.1°
